DateTimeUTC,F1_A11,F1_S11,BsB_S11,BsG_S11,BsR_S11,BbsB_S11,BbsG_S11,BbsR_S11,BaB_A11,BaG_A11,BaR_A11,Tu_S11,T_S11,Uu_S11,U_S11,P_S11,T1_A11
2021-03-10T06:00:00Z,00000200,21000000,,,,,,,0000.02,0000.24,0000.02,16.4,24.4,,00.0,0641.9,30.9
2021-03-10T06:01:00Z,00000200,21000000,,,,,,,-000.28,-000.04,-000.16,16.5,24.4,,00.0,0641.9,30.9
2021-03-10T06:02:00Z,00000200,21000000,,,,,,,0000.17,-000.26,0000.15,16.5,24.4,,00.0,0641.9,30.9
2021-03-10T06:03:00Z,00000200,61000000,,,,,,,-000.02,0000.12,-000.47,16.5,24.4,,00.0,0641.9,30.9
2021-03-10T06:04:00Z,00000200,41000000,-000.02,0000.37,0000.17,-000.26,-000.04,0000.03,-000.10,-000.05,0000.48,17.0,24.3,,00.0,0642.8,30.9
2021-03-10T06:05:00Z,00000200,01000000,-000.12,0000.42,0000.18,-000.03,0000.12,0000.27,-000.06,-000.33,-000.06,17.0,24.3,,00.0,0642.9,30.9
2021-03-10T06:06:00Z,00000200,01000000,0000.77,0000.34,0000.23,0000.11,0000.00,0000.14,0000.39,0000.38,-000.33,17.0,24.2,,00.0,0642.9,30.9
2021-03-10T06:07:00Z,00000200,01000000,0000.13,0000.27,-000.03,-000.23,-000.05,0000.06,-000.13,0000.10,0000.63,17.0,24.2,,00.0,0642.9,30.9
2021-03-10T06:08:00Z,00000200,01000000,-000.18,0000.27,0000.29,0000.30,0000.09,-000.12,0000.08,-000.16,-000.31,16.9,24.2,,00.0,0642.9,30.9
2021-03-10T06:09:00Z,00000200,01000000,-000.16,-000.04,0000.12,-000.06,0000.08,0000.04,-000.27,-000.06,-000.27,16.9,24.2,,00.0,0642.9,30.9
2021-03-10T06:10:00Z,00000200,01000000,-000.73,0000.20,0000.35,-000.04,-000.01,0000.24,0000.17,0000.37,0000.42,16.8,24.1,,00.0,0642.8,30.9
2021-03-10T06:11:00Z,00000200,01000000,-000.03,0000.42,-000.01,-000.15,0000.21,-000.07,0000.19,-000.21,0000.03,16.8,24.1,,00.0,0642.8,30.9
2021-03-10T06:12:00Z,00000200,01000000,-000.46,0000.29,0000.02,-000.43,0000.19,-000.29,-000.12,-000.22,-000.23,16.7,24.1,,00.0,0642.9,30.9
2021-03-10T06:13:00Z,00000200,01000000,0000.60,0000.29,0000.08,0000.04,0000.08,0000.22,-000.21,0000.04,0000.12,16.7,24.0,,00.0,0642.9,30.9
2021-03-10T06:14:00Z,00000200,01000000,-000.13,0000.23,0000.06,-000.05,-000.02,0000.28,0000.43,0000.72,0000.26,16.7,24.0,,00.0,0642.9,30.9
2021-03-10T06:15:00Z,00000200,01000000,-000.14,0000.52,-000.01,-000.10,0000.20,0000.40,0000.33,-000.16,0000.19,16.8,24.0,,00.0,0642.9,30.9
2021-03-10T06:16:00Z,00000200,01000000,0000.20,0000.46,0000.20,0000.16,0000.11,0000.26,-000.17,0000.11,-000.03,16.8,24.0,,00.0,0642.9,30.9
2021-03-10T06:17:00Z,00000200,01000000,-000.16,0000.21,-000.07,-000.15,0000.07,0000.06,-000.09,-000.11,0000.11,16.9,24.1,,00.0,0642.9,30.9
2021-03-10T06:18:00Z,00000200,01000000,0000.31,0000.29,0000.09,-000.12,-000.04,0000.13,0000.32,-000.24,-000.34,17.0,24.1,,00.0,0642.9,30.9
2021-03-10T06:19:00Z,00000200,01000000,0000.15,0000.16,0000.33,-000.45,-000.06,0000.16,-000.20,0000.48,0000.07,17.0,24.1,,00.0,0642.9,31.0
2021-03-10T06:20:00Z,00000200,01000000,0000.85,0000.37,0000.50,-000.38,0000.19,0000.09,-000.00,-000.03,0000.01,17.1,24.2,,00.0,0642.9,30.9
2021-03-10T06:21:00Z,00000200,01000000,0000.42,0000.34,0000.28,0000.02,0000.31,-000.07,-000.15,0000.09,0000.27,17.1,24.2,,00.0,0642.9,30.9
2021-03-10T06:22:00Z,00000200,01000000,0000.96,0000.23,0000.20,0000.32,-000.04,0000.17,0000.45,0000.02,-000.04,17.1,24.1,,00.0,0642.9,30.9
2021-03-10T06:23:00Z,00000200,01000000,0000.12,0000.17,0000.18,0000.24,0000.14,0000.26,0000.24,0000.29,0000.06,17.0,24.1,,00.0,0642.9,30.9
2021-03-10T06:24:00Z,00000200,01000000,0000.65,0000.48,0000.06,0000.04,0000.01,0000.07,0000.29,0000.12,0000.30,17.0,24.1,,00.0,0642.9,30.9
2021-03-10T06:25:00Z,00000200,01000000,-000.06,0000.30,0000.22,-000.10,0000.02,0000.14,-000.12,0000.11,0000.09,16.9,24.1,,00.0,0642.9,30.9
2021-03-10T06:26:00Z,00000200,01000000,0000.31,0000.18,-000.02,-000.16,0000.15,0000.07,0000.25,-000.18,0000.11,16.9,24.1,,00.0,0642.9,30.9
2021-03-10T06:27:00Z,00000200,01000000,0000.42,0000.24,0000.18,-000.40,0000.14,0000.19,-000.03,0000.27,-000.07,16.8,24.0,,00.0,0642.9,30.8
2021-03-10T06:28:00Z,00000200,01000000,-000.06,0000.27,0000.03,-000.00,-000.25,0000.12,0000.45,0000.20,-000.20,16.7,24.0,,00.0,0642.9,30.8
2021-03-10T06:29:00Z,00000200,01000000,0000.30,0000.32,0000.23,-000.32,-000.05,0000.16,-000.28,-000.10,0000.18,16.8,24.0,,00.0,0642.8,30.9
2021-03-10T06:30:00Z,00000200,01000000,0000.44,0000.46,0000.10,0000.02,-000.07,0000.04,0000.22,0000.37,0000.41,16.8,24.0,,00.0,0642.8,30.9
2021-03-10T06:31:00Z,00000200,01000000,0000.67,0000.28,-000.05,-000.51,0000.19,-000.03,0000.16,0000.02,0000.13,16.9,24.0,,00.0,0642.8,30.9
2021-03-10T06:32:00Z,00000200,01000000,-000.05,0000.09,0000.03,-000.01,-000.03,-000.11,0000.22,0000.14,-000.18,16.9,24.0,,00.0,0642.8,30.9
2021-03-10T06:33:00Z,00000200,01000000,0000.06,0000.33,0000.07,-000.22,0000.09,0000.31,0000.07,0000.03,0000.47,17.0,24.1,,00.0,0642.9,30.9
2021-03-10T06:34:00Z,00000200,01000000,-000.18,0000.20,0000.39,-000.10,0000.00,0000.42,0000.17,0000.16,-000.15,17.1,24.1,,00.0,0642.9,30.9
2021-03-10T06:35:00Z,00000200,01000000,0000.35,0000.14,-000.10,-000.19,0000.10,-000.05,-000.06,0000.09,0000.10,17.1,24.1,,00.0,0642.9,30.9
2021-03-10T06:36:00Z,00000200,01000000,0000.45,0000.34,-000.08,-000.21,0000.04,0000.12,-000.01,-000.16,0000.01,17.2,24.2,,00.0,0642.9,31.0
2021-03-10T06:37:00Z,00000200,01000000,0000.13,0000.22,0000.25,-000.03,-000.13,-000.16,-000.06,-000.10,-000.40,17.2,24.2,,00.0,0642.9,31.0
2021-03-10T06:38:00Z,00000200,01000000,0000.63,0000.43,-000.01,-000.07,0000.14,0000.02,0000.05,0000.18,0000.34,17.1,24.2,,00.0,0642.9,31.0
2021-03-10T06:39:00Z,00000200,01000000,0000.46,0000.25,0000.25,0000.10,-000.08,0000.18,-000.32,-000.23,-000.15,17.1,24.1,,00.0,0642.9,30.9
2021-03-10T06:40:00Z,00000200,01000000,0000.26,0000.20,0000.09,-000.35,0000.22,-000.05,0000.26,-000.13,0000.08,17.0,24.1,,00.0,0642.9,30.9
2021-03-10T06:41:00Z,00000200,01000000,0000.57,0000.14,-000.07,-000.05,-000.04,0000.03,0000.24,0000.36,-000.05,16.9,24.1,,00.0,0642.9,30.9
2021-03-10T06:42:00Z,00000200,01000000,0000.25,0000.18,0000.21,-000.05,0000.14,0000.01,0000.36,0000.09,0000.33,16.9,24.0,,00.0,0642.9,30.9
2021-03-10T06:43:00Z,00000200,01000000,-000.01,0000.41,-000.02,-000.02,0000.17,-000.02,0000.08,0000.33,-000.10,16.8,24.0,,00.0,0642.9,30.9
2021-03-10T06:44:00Z,00000200,01000000,0000.75,0000.13,0000.09,-000.31,0000.06,-000.03,0000.03,0000.03,0000.33,16.9,24.0,,00.0,0642.9,30.9
2021-03-10T06:45:00Z,00000200,01000000,-000.03,0000.57,0000.01,0000.19,0000.07,0000.25,0000.51,0000.78,0000.10,16.9,24.0,,00.0,0642.9,30.9
2021-03-10T06:46:00Z,00000200,01000000,0000.49,0000.07,0000.36,-000.16,0000.11,0000.20,-000.07,-000.18,0000.37,17.0,24.0,,00.0,0642.9,30.9
2021-03-10T06:47:00Z,00000200,01000000,0000.46,0000.28,0000.24,-000.23,0000.11,0000.10,0000.26,0000.21,0000.08,17.0,24.1,,00.0,0642.9,30.9
2021-03-10T06:48:00Z,00000200,01000000,-000.25,0000.33,0000.28,-000.04,0000.08,0000.13,0000.34,0000.07,-000.04,17.1,24.1,,00.0,0642.9,30.9
2021-03-10T06:49:00Z,00000200,01000000,0000.87,0000.41,-000.03,0000.13,0000.00,0000.23,-000.07,0000.39,0000.12,17.2,24.1,,00.0,0642.9,30.9
2021-03-10T06:50:00Z,00000200,01000000,0000.26,0000.53,0000.23,0000.16,0000.12,0000.07,0000.04,-000.11,0000.30,17.2,24.2,,00.0,0642.9,31.0
2021-03-10T06:51:00Z,00000200,01000000,0000.17,0000.28,0000.19,0000.00,0000.23,0000.19,0000.69,0000.72,0000.14,17.3,24.2,,00.0,0642.8,31.0
2021-03-10T06:52:00Z,00000200,01000000,0000.32,0000.37,0000.20,0000.10,0000.14,0000.12,-000.13,-000.22,-000.23,17.3,24.2,,00.0,0642.9,31.0
2021-03-10T06:53:00Z,00000200,01000000,-000.38,0000.40,0000.16,0000.14,0000.13,-000.13,0000.19,0000.26,0000.53,17.4,24.3,,00.0,0642.9,31.0
2021-03-10T06:54:00Z,00000200,01000000,0000.31,0000.43,0000.08,-000.08,0000.06,0000.20,0000.04,-000.10,-000.45,17.4,24.3,,00.0,0642.9,31.0
2021-03-10T06:55:00Z,00000200,01000000,0000.41,0000.18,-000.08,-000.16,0000.16,-000.12,0000.10,0000.31,0000.58,17.5,24.3,,00.0,0642.9,31.0
2021-03-10T06:56:00Z,00000200,01000000,0000.39,0000.34,0000.16,-000.14,-000.03,0000.18,0000.01,0000.14,-000.01,17.4,24.3,,00.0,0642.8,31.0
2021-03-10T06:57:00Z,00000200,41000000,,,,,,,0000.94,0000.43,0000.32,17.5,24.3,,00.0,0642.8,30.9
2021-03-10T06:58:00Z,00000200,61000000,,,,,,,-000.17,-000.01,0000.12,17.0,24.4,,00.0,0641.9,31.0
2021-03-10T06:59:00Z,00000200,21000000,,,,,,,-000.32,-000.74,-000.29,16.9,24.5,,00.0,0641.9,31.0
